Location: Bruneau Dunes Observatory
(42.9024°N, 115.6902°W)
Time: 04:45:42
(UTC-06:00)

Daily predictions for brighter satellites

Satellite Brightness Start Highest point End
(mag) Time Altitude Azimuth Time Altitude Azimuth Time Altitude Azimuth
deb Chang Zheng 4 3.7 00:00:53 10° N 00:05:10 68° WNW 00:06:02 52° SW
SME Rocket 4.4 00:05:28 34° ESE 00:06:46 40° ENE 00:10:54 10° N
Cosmos 2228 3.7 00:02:42 10° NNW 00:06:50 46° W 00:07:32 42° WSW
Cosmos 2082 Rocket 2.1 00:06:38 50° S 00:08:08 75° ESE 00:13:48 10° NNE
Cosmos 1602 Rocket 3.3 00:08:01 80° SE 00:08:09 82° E 00:12:31 10° N
Cosmos 1544 4.4 00:06:14 10° N 00:08:50 30° NE 00:08:50 30° NE
SeaSat 1 3.5 00:09:30 30° E 00:10:54 37° NE 00:15:25 10° N
Cosmos 1953 4.0 00:07:35 10° NNE 00:10:40 24° ENE 00:10:40 24° ENE
Cosmos 1842 4.2 00:14:23 37° ENE 00:14:23 37° ENE 00:17:15 10° NNE
Cosmos 921 Rocket 3.9 00:09:39 10° NNW 00:13:51 39° W 00:14:23 38° WSW
Cosmos 2369 4.2 00:16:57 10° NW 00:22:29 50° WSW 00:23:40 43° SW
CZ-2C R/B 3.6 00:21:22 10° NNE 00:26:24 33° E 00:26:29 33° E
COSMOS 2487 3.8 00:27:18 34° WNW 00:27:26 35° WNW 00:30:45 10° N
Cosmos 1271 Rocket 3.2 00:24:52 10° N 00:28:05 56° NNE 00:28:05 56° NNE
Cosmos 1269 Rocket 4.0 00:29:07 60° ESE 00:29:14 60° ESE 00:34:27 10° NNE
USA 229 DEB 4.2 00:22:56 10° NNW 00:29:58 59° NE 00:33:13 33° ESE
USA 229 4.2 00:23:01 10° NNW 00:30:04 58° NE 00:33:20 33° ESE
Iridium 2 4.2 00:26:47 10° N 00:29:55 59° N 00:29:55 59° N
SL-16 R/B 3.8 00:28:49 10° N 00:33:30 25° NE 00:36:00 19° E
Nadezhda 3 Rocket 4.0 00:32:43 55° SSE 00:34:06 72° E 00:40:28 10° NNE
Cosmos 1697 Rocket 2.5 00:29:16 10° NNW 00:34:53 78° WSW 00:35:40 65° S
Meteor 2-8 Rocket 4.5 00:34:24 54° SE 00:35:27 63° E 00:41:32 10° NNE
Lacrosse 5 rocket 4.3 00:33:04 10° NNW 00:36:11 17° NNE 00:39:18 10° ENE
USA 234 4.0 00:32:58 15° E 00:38:08 49° NNE 00:44:23 10° NW
CZ-4B R/B 4.0 00:33:27 10° N 00:38:21 54° WNW 00:39:47 40° WSW
Cosmos 158 Rocket 3.9 00:39:19 70° SE 00:39:31 71° ESE 00:44:52 10° NNE
Cosmos 1766 4.2 00:41:23 10° NNW 00:44:36 43° WNW 00:44:36 43° WNW
Cosmos 1420 Rocket 4.0 00:41:06 10° NNW 00:46:19 64° WSW 00:46:39 62° SW
Cosmos 1758 3.9 00:45:22 10° N 00:48:37 55° NNE 00:48:37 55° NNE
Cosmos 1048 Rocket 3.8 00:50:39 78° SW 00:50:59 86° WNW 00:56:12 10° NNE
Terra 3.7 00:50:38 18° WSW 00:51:27 19° W 00:54:51 10° NW
Meteor 1-21 4.4 00:51:56 51° SW 00:53:10 64° WNW 00:58:52 10° N
Cosmos 1821 Rocket 4.0 00:46:56 10° N 00:53:12 72° E 00:54:24 57° SE
Cosmos 1833 Rocket 3.3 00:51:47 33° WSW 00:54:01 52° WNW 00:59:32 10° NNE
Cosmos 1758 Rocket 4.0 00:56:24 53° NE 00:56:24 53° NE 00:59:57 10° NNE
Cosmos 1452 Rocket 4.5 00:51:29 10° NW 00:56:12 34° W 00:56:34 34° WSW
ISS -1.6 00:57:34 26° NNW 00:57:57 26° NNW 01:00:48 10° NE
Cosmos 1110 Rocket 4.5 00:52:49 10° N 00:57:57 50° ENE 00:58:34 47° E
Cosmos 2098 Rocket 4.5 00:56:12 10° NNE 00:59:47 30° ENE 00:59:47 30° ENE
H-2A R/B 4.4 00:59:23 14° W 00:59:57 15° W 01:02:28 10° WNW
Cosmos 1470 3.8 00:59:17 10° N 01:02:20 42° NE 01:02:20 42° NE
Cosmos 2251 Rocket 4.3 01:09:46 40° E 01:09:46 40° E 01:14:22 10° NE
ALOS 2 2.8 01:15:08 68° NNW 01:15:08 68° NNW 01:19:01 10° NNW
Cosmos 1605 Rocket 4.2 01:09:37 10° N 01:15:37 57° ENE 01:16:39 50° ESE
Cosmos 1535 Rocket 4.3 01:13:17 10° N 01:19:24 77° W 01:20:16 65° SSW
Cosmos 2360 Rocket 4.0 01:15:13 10° N 01:19:48 24° NE 01:22:59 16° E
Cosmos 1980 Rocket 2.4 01:15:44 10° NNW 01:21:15 55° WSW 01:21:21 55° WSW
Cosmos 1953 Rocket 3.9 01:22:14 62° NW 01:22:14 62° NW 01:26:17 10° N
Cosmos 1707 3.9 01:25:41 38° NNE 01:25:41 38° NNE 01:28:16 10° NNE
ARGOS Delta rocket 4.0 01:20:21 10° N 01:25:35 80° WNW 01:25:56 75° SW
Cosmos 1825 Rocket 4.5 01:26:20 40° WNW 01:26:20 40° WNW 01:30:11 10° N
Cosmos 2322 Rocket 2.4 01:23:36 10° NNW 01:29:17 64° ENE 01:30:12 56° ESE
Spot 2 4.4 01:25:30 10° NNE 01:30:37 89° ESE 01:30:40 88° SSE
USA 32 3.9 01:37:53 82° ESE 01:37:58 82° E 01:43:15 10° N
CZ-4B R/B 3.6 01:44:34 23° NNE 01:44:34 23° NNE 01:46:02 10° N
CZ-2C R/B 3.6 01:44:56 47° W 01:45:01 47° W 01:50:22 10° NNW
USA 267 4.1 01:39:54 10° NE 01:46:07 48° NNW 01:52:19 10° W
Cosmos 1953 4.2 01:43:57 10° NNW 01:46:24 23° WNW 01:46:24 23° WNW
SeaSat 1 3.6 01:49:17 30° W 01:49:17 30° W 01:52:51 10° NW
Cosmos 972 4.5 01:46:01 10° NNW 01:51:42 76° ENE 01:52:03 72° ESE
Cosmos 2082 Rocket 4.4 01:48:50 10° W 01:52:51 19° NW 01:56:53 10° N
NOSS 3-1 (C) 4.0 01:49:39 10° NW 01:57:17 90° SW 02:00:34 42° SE
Geosat 4.0 01:55:09 10° NNE 02:00:09 69° WNW 02:00:33 65° W
Cosmos 1459 Rocket 4.5 01:56:38 10° N 02:02:50 54° ENE 02:04:37 42° SE
Meteor 2-15 4.3 02:02:32 68° SSW 02:03:23 87° W 02:09:30 10° N
ATLAS CENTAUR R/B 2.6 02:01:59 10° NNW 02:04:15 34° NNW 02:04:15 34° NNW
CZ-2C R/B 3.8 02:01:34 10° N 02:06:39 36° WNW 02:08:00 32° W
Cosmos-2242 4.4 02:07:15 10° NNW 02:10:14 29° WNW 02:10:14 29° WNW
Cosmos 2100 Rocket 4.1 02:06:42 10° N 02:12:51 68° E 02:14:14 52° SE
Meteor 2-5 Rocket 4.0 02:12:51 54° WSW 02:13:46 61° WNW 02:19:40 10° N
H-2A R/B 3.0 02:10:10 10° NNE 02:13:44 54° ENE 02:13:44 54° ENE
Lacrosse 5 rocket 2.5 02:11:55 10° NW 02:16:27 48° NE 02:18:04 33° E
Cosmos 2061 Rocket 4.2 02:10:23 10° N 02:16:33 62° E 02:18:12 46° SE
SL-16 R/B 2.4 02:12:25 10° NNW 02:17:50 54° WSW 02:17:50 54° WSW
USA 234 3.2 02:20:17 56° SSW 02:21:03 59° SW 02:27:30 10° NW
Meteor 2-15 Rocket 4.4 02:23:02 60° SW 02:24:03 72° W 02:30:09 10° N
ATLAS 2AS CENTAUR R/B 4.3 02:20:14 10° NNW 02:27:42 38° NE 02:34:44 10° ESE
NOSS 3-1 (A) 4.0 02:20:15 10° NW 02:27:54 80° WSW 02:31:27 39° SSE
Cosmos 2221 2.7 02:28:14 10° N 02:32:13 69° NE 02:32:13 69° NE
ISS -0.8 02:32:54 10° NW 02:35:13 18° N 02:37:33 10° NE
Helios 1A Rocket 3.8 02:32:33 10° NNE 02:36:15 40° E 02:36:15 40° E
Lacrosse 5 1.7 02:36:31 83° SSE 02:36:38 84° SE 02:41:44 10° NE
Cosmos 2322 3.7 02:32:40 10° NNW 02:38:21 78° ENE 02:39:47 51° SE
Cosmos 1833 4.0 02:41:43 66° SSW 02:42:33 87° WNW 02:48:16 10° NNE
Cosmos 2123 Rocket 4.4 02:41:09 40° SE 02:43:02 54° E 02:49:03 10° NNE
Cosmos 1726 4.1 02:40:59 10° NNE 02:43:59 22° ENE 02:44:41 21° E
Cosmos 2084 Rocket 3.7 02:46:11 59° NE 02:46:11 59° NE 02:49:27 10° NE
In-Cosmos 22 4.1 02:48:21 61° WSW 02:49:02 69° WNW 02:54:31 10° N
COSMOS 2428 3.3 02:44:54 10° NNW 02:50:33 54° ENE 02:53:57 24° SE
Cosmos 2219 3.7 02:52:43 41° SE 02:53:48 46° ESE 02:59:08 10° NE
Cosmos 1242 Rocket 3.8 02:54:50 10° N 02:58:07 35° ENE 02:58:09 35° ENE
Cosmos 1908 3.5 02:56:30 10° N 02:59:58 67° NNW 02:59:58 67° NNW
Cosmos 1076 Rocket 3.4 03:01:28 82° WNW 03:01:28 82° WNW 03:05:47 10° N
Cosmos 1992 Rocket 3.8 02:57:28 10° NNW 03:02:42 80° WSW 03:03:31 63° S
Cosmos 2360 Rocket 2.2 02:58:38 10° NNW 03:04:11 56° WSW 03:04:43 54° SW
PSLV R/B 3.8 03:04:24 77° E 03:04:29 78° ENE 03:08:33 10° N
Cosmos 1725 Rocket 4.0 03:04:06 10° N 03:10:29 87° E 03:12:56 40° S
Cosmos 1356 Rocket 3.5 03:11:22 62° ESE 03:11:29 62° E 03:15:29 10° NNE
SL-08 R/B 4.0 03:10:17 29° SE 03:12:33 53° ENE 03:17:22 10° N
Okean 3 Rocket 4.2 03:12:35 43° W 03:12:45 43° WNW 03:17:06 10° N
Cosmos 2322 Rocket 3.9 03:08:54 10° WNW 03:11:59 18° W 03:11:59 18° W
PSLV R/B 3.9 03:11:36 10° N 03:15:44 50° WNW 03:15:54 50° W
SL-08 R/B 4.4 03:11:54 10° NNW 03:17:57 69° W 03:19:50 45° SSW
SL-14 R/B 4.2 03:18:40 38° ESE 03:19:21 42° E 03:23:12 10° NNE
Cosmos 1184 Rocket 4.2 03:24:17 31° NW 03:24:17 31° NW 03:26:35 10° N
Cosmos 2333 Rocket 3.1 03:18:27 10° NNW 03:24:00 48° ENE 03:29:29 10° SE
AQUA 4.3 03:19:57 10° NNE 03:24:36 52° E 03:26:02 38° SSE
Resurs 1-4 Rocket 3.6 03:20:11 10° NE 03:24:49 30° E 03:27:45 18° SE
CZ-2D R/B 3.4 03:24:39 10° NNE 03:29:17 31° E 03:32:11 19° SE
SL-8 R/B 3.9 03:37:46 48° S 03:38:26 53° SE 03:43:07 10° ENE
ERBS 3.7 03:40:42 28° ESE 03:40:42 28° ESE 03:43:22 10° ENE
Cosmos 1408 Rocket 4.0 03:40:13 43° W 03:40:46 46° WNW 03:44:59 10° N
Cosmos 1340 Rocket 4.2 03:41:44 24° WNW 03:41:48 24° WNW 03:45:04 10° NNW
Cosmos 1980 4.5 03:37:30 10° NNW 03:43:04 52° ENE 03:48:36 10° SE
SL-16 R/B 2.9 03:37:30 12° SSE 03:43:15 64° ENE 03:49:22 10° N
Cosmos 2297 Rocket 3.6 03:40:46 18° SSE 03:43:57 31° ESE 03:48:50 10° NE
Cosmos 1766 Rocket 4.1 03:43:37 39° W 03:44:12 41° WNW 03:48:22 10° N
Cosmos 1500 Rocket 3.7 03:44:31 41° SSE 03:45:55 69° E 03:50:20 10° NNE
IRS-1C 4.2 03:42:00 10° NNE 03:47:23 76° ESE 03:49:48 33° S
Cosmos 1674 4.1 03:47:37 25° WNW 03:47:39 25° WNW 03:50:53 10° NNW
Cosmos 2219 Rocket 2.1 03:45:01 10° NNW 03:50:45 88° WSW 03:55:32 15° SSE
Cosmos 1328 3.7 03:50:34 57° SSW 03:51:17 75° W 03:55:16 10° N
Aureole 2 Rocket 4.2 03:47:45 10° N 03:51:28 38° ENE 03:55:20 10° SE
Cosmos 1626 3.5 03:49:54 23° SE 03:51:31 34° E 03:54:55 10° NNE
COBE Rocket 4.4 03:48:33 10° NNE 03:53:08 51° E 03:55:32 26° SSE
GPS 2-04 Rocket1 4.1 03:54:11 25° SSE 03:54:11 25° SSE 03:56:51 10° ESE
Lacrosse 5 rocket 3.1 03:51:34 10° WNW 03:53:40 22° W 03:53:40 22° W
BREEZE-M DEB 3.9 03:55:07 32° S 03:55:52 35° SSE 03:58:30 10° E
NOSS 0 Rocket 3.9 03:52:52 10° NNW 03:59:06 86° ENE 04:05:20 10° SSE
Meteor 2-2 Rocket 4.3 03:53:40 10° NNW 03:59:11 56° W 04:01:36 32° SSW
SL-16 R/B 4.1 03:55:41 10° N 04:00:42 31° NE 04:05:40 10° ESE
Cosmos 1300 2.9 03:58:14 10° NNW 04:01:57 48° W 04:02:23 45° WSW
Cosmos 2237 Rocket 2.5 03:57:30 10° NNW 04:03:09 68° ENE 04:08:43 10° SSE
Cosmos 1140 Rocket 3.7 04:00:48 29° S 04:03:26 68° ESE 04:08:38 10° NNE
Cosmos 1515 Rocket 3.6 03:59:50 10° NNW 04:04:13 62° W 04:05:45 38° SSW
Cosmos 1743 Rocket 3.9 04:04:41 38° SW 04:06:00 52° W 04:10:23 10° N
Meteor 2-12 Rocket 4.4 04:01:59 10° NNW 04:08:08 73° W 04:12:18 21° S
CBERS-1 4.4 04:06:18 10° N 04:11:15 52° WNW 04:13:33 29° SW
Cosmos 614 Rocket 4.2 04:08:44 25° S 04:11:44 64° ESE 04:16:55 10° NNE
ISS -1.9 04:09:27 10° NW 04:12:27 31° NNE 04:15:25 10° E
USA 161 4.2 04:15:29 10° E 04:15:54 10° ENE 04:16:19 10° ENE
NOSS 2-1 (D) 3.6 04:17:05 32° S 04:18:37 58° ESE 04:22:45 10° NE
NOSS 2-1 (C) 3.6 04:17:15 32° S 04:18:48 56° ESE 04:22:55 10° NE
NPP 4.3 04:14:04 10° N 04:19:07 42° WNW 04:21:49 25° WSW
ATLAS 2AS CENTAUR R/B 2.9 04:11:20 10° NW 04:19:14 64° WSW 04:26:31 10° SSE
Cosmos 1726 3.5 04:16:12 10° NW 04:19:14 23° W 04:19:17 23° W
Lacrosse 5 3.6 04:15:51 10° W 04:20:08 27° NNW 04:24:27 10° NNE
Cosmos 2227 Rocket 2.2 04:17:14 25° SSW 04:20:42 79° ESE 04:26:23 10° NNE
ARIANE 5 R/B 2.5 04:15:59 10° NNE 04:21:08 87° ESE 04:24:24 22° SSW
Cosmos 1954 Rocket 4.1 04:20:53 27° SW 04:23:44 66° WNW 04:28:59 10° NNE
Cosmos 2034 Rocket 4.3 04:18:04 10° N 04:24:24 68° E 04:30:44 10° SSE
Cosmos 2228 Rocket 4.2 04:22:58 10° NNW 04:26:46 28° W 04:27:56 24° WSW
NOSS 3-3 (A) 4.0 04:22:59 24° SW 04:26:52 77° NW 04:33:38 10° NE
NOSS 3-3 (C) 4.0 04:23:04 24° SW 04:26:59 77° NW 04:33:43 10° NE
Cosmos 407 Rocket 4.4 04:24:25 22° WSW 04:26:59 35° WNW 04:31:43 10° N
Cosmos 2058 3.0 04:27:07 30° SSW 04:28:57 57° W 04:33:01 10° N
Meteor 1-27 4.4 04:27:16 10° NNW 04:32:57 58° W 04:37:43 15° S
Meteor 1-11 4.4 04:30:47 23° SSW 04:34:19 57° WNW 04:39:59 10° N
COSMOS 2428 3.9 04:30:01 10° NW 04:34:24 23° W 04:35:54 21° WSW
ADEOS Rocket 3.6 04:27:57 10° N 04:35:09 67° WNW 04:41:15 17° SSW
Sich 1 3.9 04:33:37 10° SSE 04:37:52 49° E 04:42:06 10° NNE
Tsikada Rocket 4.5 04:31:42 10° S 04:37:54 62° E 04:44:14 10° NNE
Cosmos 2219 4.5 04:34:38 16° WSW 04:38:08 28° NW 04:42:58 10° N
NOSS 2-1 (E) 3.3 04:39:20 25° SW 04:41:31 89° ESE 04:45:52 10° NE
USA 102 4.0 04:40:17 10° NNW 04:41:30 25° WNW 04:41:30 25° WNW
Cosmos 1455 2.1 04:42:03 10° NNW 04:45:53 69° W 04:49:23 12° S
ATLAS 3B CENTAUR R/B 3.9 04:39:34 14° WSW 04:47:26 27° SSW 04:52:12 10° SE
Cosmos 2082 3.7 04:43:59 19° SSW 04:48:08 75° WNW 04:53:47 10° NNE
Cosmos 1703 3.8 04:46:41 22° SW 04:48:46 42° WNW 04:52:31 10° N
CZ-2D R/B 3.4 04:48:10 10° NNE 04:52:11 86° E 04:55:51 13° SSW
Lacrosse 4 Rocket 3.3 04:50:16 10° SSE 04:53:37 25° ESE 04:57:02 10° NE
Cosmos 2208 Rocket 3.9 04:49:33 10° NNW 04:54:45 78° WSW 04:59:58 10° SSE
Cosmos 1151 Rocket 4.4 04:54:24 10° NW 04:57:42 22° W 04:59:37 16° WSW
Cosmos 2151 4.3 04:56:39 16° WSW 04:58:48 23° WNW 05:02:13 10° NNW
MOZ.5/SAFIR/RUBIN 5/SL-8 3.8 04:55:20 10° S 05:00:02 65° WSW 05:04:48 10° NNW
Cosmos 1900 4.3 04:58:38 15° SSW 05:02:43 90° ESE 05:07:45 10° NNE
UNKNOWN OBJECT B 3.0 05:00:11 10° N 05:04:10 57° WNW 05:07:35 13° SSW
Cosmos 1707 Rocket 3.5 05:00:19 10° NNW 05:04:39 65° W 05:08:59 10° S
Resurs 1-4 Rocket 2.9 04:59:51 10° N 05:04:41 37° WNW 05:08:51 13° SW
IRS-1D 4.4 05:00:15 10° N 05:05:06 36° WNW 05:09:17 13° SW
Cosmos 2333 Rocket 3.2 05:03:19 10° NW 05:07:56 26° WSW 05:12:30 10° SSW
CZ-2D R/B 3.0 05:04:41 10° N 05:09:20 34° WNW 05:13:31 12° SW
ERBS 3.7 05:14:00 10° W 05:17:01 30° NW 05:20:03 10° NNE
MOS 1 Rocket 3.7 05:12:40 10° N 05:17:37 61° WNW 05:22:49 10° SSW
Cosmos 468 Rocket 4.1 05:14:01 10° NNW 05:19:16 82° ENE 05:24:25 10° SSE
Cosmos 1666 Rocket 3.8 05:15:28 10° SSW 05:19:46 56° W 05:24:09 10° N
ADEOS II 2.8 05:15:12 10° NNE 05:20:22 54° E 05:25:30 10° S
SL-8 R/B 4.3 05:16:21 10° W 05:21:02 55° NNW 05:25:47 10° ENE
Cosmos 1862 Rocket 4.3 05:18:32 10° N 05:22:50 57° E 05:27:05 10° SSE
Transit 2A Rocket 4.5 05:21:54 10° SW 05:26:12 78° WNW 05:30:34 10° NNE
Aureole 2 Rocket 4.4 05:23:46 10° WNW 05:26:30 18° W 05:29:18 10° SW
Cosmos 1626 4.1 05:24:41 10° WSW 05:27:00 16° WNW 05:29:19 10° NNW
SL-16 R/B 3.8 05:22:49 10° SW 05:27:20 21° W 05:31:52 10° NW
Cosmos 371 Rocket 4.3 05:22:50 10° N 05:27:34 53° ENE 05:32:15 10° SE
Cosmos 2297 Rocket 2.9 05:22:35 10° SW 05:27:50 40° WNW 05:33:10 10° NNE
MOS 1-B 4.4 05:22:26 10° NNE 05:28:15 79° WNW 05:34:00 10° SSW
Cosmos 1933 Rocket 4.0 05:25:16 10° S 05:29:42 68° E 05:34:09 10° NNE
GPS 2-04 Rocket1 3.9 05:28:57 10° WSW 05:32:31 27° S 05:36:10 10° SE
Cosmos 2219 Rocket 4.0 05:31:43 10° WNW 05:33:47 12° W 05:35:51 10° WSW
Meteor 2-10 Rocket 3.9 05:29:10 10° N 05:34:11 65° ENE 05:39:09 10° SSE
Okean O Rocket 2.0 05:29:52 10° NNE 05:34:14 67° ESE 05:38:32 10° S
Cosmos 1634 Rocket 4.0 05:28:37 10° N 05:34:51 88° W 05:41:02 10° S
GP-B 3.5 05:32:40 10° N 05:37:07 71° E 05:41:33 10° S
Cosmos 1814 Rocket 4.2 05:32:40 10° NNW 05:38:02 86° ENE 05:43:24 10° SSE
CZ-4B R/B 3.3 05:34:20 10° NNE 05:38:50 80° ESE 05:43:09 10° S
